FW3849 Weather Reports


Display with metric or nautical units.
time (UTC)temp
F
wind
direction
speed
MPH
gust
MPH
rain 1hr
in
rain 24hr
in
rain mn
in
humidity
%
barometer
mb
20260906111603 77 187 1.0 3.0 0.00 0.00 0.00 56 1010.6
20260906111059 77 187 1.0 3.0 0.00 0.00 0.00 56 1010.6
20260906110559 77 187 1.0 3.0 0.00 0.00 0.00 55 1010.5
20260906110100 77 187 2.0 4.0 0.00 0.00 0.00 55 1010.4
20260906105558 77 187 2.0 4.0 0.00 0.00 0.00 55 1010.5
20260906105058 77 187 2.0 4.0 0.00 0.00 0.00 55 1010.4
20260906104557 77 187 2.0 4.0 0.00 0.00 0.00 55 1010.4
20260906103559 78 187 2.0 4.0 0.00 0.00 0.00 54 1010.3
20260906103058 78 187 3.0 4.0 0.00 0.00 0.00 54 1010.4
20260906102559 78 187 2.0 4.0 0.00 0.00 0.00 54 1010.4
20260906102101 78 187 2.0 3.0 0.00 0.00 0.00 54 1010.4
20260906101603 78 187 1.0 3.0 0.00 0.00 0.00 54 1010.3
20260906101057 78 187 1.0 3.0 0.00 0.00 0.00 54 1010.5
20260906100557 78 187 1.0 3.0 0.00 0.00 0.00 54 1010.4
20260906100057 78 187 1.0 4.0 0.00 0.00 0.00 54 1010.4
20260906095557 78 187 2.0 4.0 0.00 0.00 0.00 54 1010.4
20260906095057 78 187 1.0 3.0 0.00 0.00 0.00 54 1010.2
20260906094557 78 187 1.0 2.0 0.00 0.00 0.00 54 1010.2
20260906093554 78 187 1.0 3.0 0.00 0.00 0.00 53 1010.2
20260906093054 78 187 0.0 3.0 0.00 0.00 0.00 53 1010.2
20260906092553 78 187 1.0 4.0 0.00 0.00 0.00 53 1010.1
20260906092053 79 187 2.0 4.0 0.00 0.00 0.00 52 1010.1
20260906091553 79 187 2.0 4.0 0.00 0.00 0.00 52 1010.1
20260906091051 79 187 2.0 5.0 0.00 0.00 0.00 52 1010.0
20260906090551 79 188 2.0 5.0 0.00 0.00 0.00 52 1010.1
20260906090050 79 188 2.0 5.0 0.00 0.00 0.00 52 1010.1
20260906085553 79 188 3.0 5.0 0.00 0.00 0.00 52 1010.2
20260906085050 79 188 2.0 4.0 0.00 0.00 0.00 51 1010.3
20260906084550 79 188 2.0 4.0 0.00 0.00 0.00 51 1010.3
20260906083549 79 188 2.0 4.0 0.00 0.00 0.00 51 1010.3
20260906083050 79 188 2.0 4.0 0.00 0.00 0.00 51 1010.2
20260906082549 79 188 1.0 4.0 0.00 0.00 0.00 51 1010.1
20260906082049 79 188 2.0 3.0 0.00 0.00 0.00 52 1010.2
20260906081552 79 188 1.0 3.0 0.00 0.00 0.00 52 1010.2
20260906081048 79 188 0.0 3.0 0.00 0.00 0.00 52 1010.2
20260906080550 79 188 0.0 2.0 0.00 0.00 0.00 51 1010.3
20260906080047 79 188 0.0 2.0 0.00 0.00 0.00 51 1010.3
20260906075546 79 188 1.0 2.0 0.00 0.00 0.00 51 1010.4
20260906075046 79 188 1.0 2.0 0.00 0.00 0.00 51 1010.3
20260906074546 79 188 1.0 3.0 0.00 0.00 0.00 51 1010.4
20260906073546 79 188 2.0 4.0 0.00 0.00 0.00 51 1010.5
20260906073046 79 188 1.0 4.0 0.00 0.00 0.00 50 1010.5
20260906072547 80 188 1.0 3.0 0.00 0.00 0.00 50 1010.6
20260906072042 80 188 1.0 3.0 0.00 0.00 0.00 50 1010.7
20260906071542 80 188 1.0 3.0 0.00 0.00 0.00 50 1010.7
20260906071042 80 188 1.0 3.0 0.00 0.00 0.00 50 1010.9
20260906070541 80 188 1.0 4.0 0.00 0.00 0.00 49 1010.9
20260906070040 80 188 2.0 4.0 0.00 0.00 0.00 49 1010.9
20260906065543 80 189 2.0 4.0 0.00 0.00 0.00 49 1010.9
20260906065040 80 189 2.0 4.0 0.00 0.00 0.00 49 1011.0
20260906064540 80 190 1.0 4.0 0.00 0.00 0.00 49 1011.0
20260906063542 81 190 1.0 4.0 0.00 0.00 0.00 49 1011.1
20260906063037 81 190 2.0 5.0 0.00 0.00 0.00 49 1011.1
20260906062536 81 190 2.0 4.0 0.00 0.00 0.00 48 1011.2
20260906062136 81 190 2.0 4.0 0.00 0.00 0.00 48 1011.1
20260906061536 81 190 1.0 4.0 0.00 0.00 0.00 48 1011.3
20260906061036 81 190 2.0 4.0 0.00 0.00 0.00 48 1011.3
20260906060535 81 190 2.0 3.0 0.00 0.00 0.00 49 1011.3
20260906060044 81 190 2.0 4.0 0.00 0.00 0.00 48 1011.2
20260906055533 81 190 2.0 4.0 0.00 0.00 0.00 48 1011.4
20260906055033 81 190 2.0 4.0 0.00 0.00 0.00 48 1011.4
20260906054533 82 190 2.0 4.0 0.00 0.00 0.00 47 1011.4
20260906053535 82 191 4.0 6.0 0.00 0.00 0.00 47 1011.3
20260906053035 82 172 3.0 6.0 0.00 0.00 0.00 47 1011.3
20260906052536 82 171 3.0 6.0 0.00 0.00 0.00 47 1011.4
20260906052029 82 175 3.0 5.0 0.00 0.00 0.00 47 1011.4
20260906051529 82 187 2.0 5.0 0.00 0.00 0.00 46 1011.3
20260906051028 83 187 2.0 5.0 0.00 0.00 0.00 46 1011.5
20260906050527 83 187 2.0 5.0 0.00 0.00 0.00 46 1011.5
20260906050026 83 185 3.0 6.0 0.00 0.00 0.00 46 1011.5
20260906045528 83 175 3.0 6.0 0.00 0.00 0.00 46 1011.5
20260906045026 83 155 3.0 6.0 0.00 0.00 0.00 46 1011.4
20260906044527 83 177 3.0 6.0 0.00 0.00 0.00 46 1011.4
20260906043525 83 170 2.0 5.0 0.00 0.00 0.00 45 1011.4
20260906043027 83 171 3.0 5.0 0.00 0.00 0.00 45 1011.3
20260906042626 83 171 2.0 5.0 0.00 0.00 0.00 45 1011.3
20260906042025 84 171 2.0 5.0 0.00 0.00 0.00 45 1011.2
20260906041530 84 177 2.0 5.0 0.00 0.00 0.00 45 1011.1
20260906041025 84 179 3.0 5.0 0.00 0.00 0.00 45 1011.2
20260906040524 84 179 3.0 9.0 0.00 0.00 0.00 45 1011.1
20260906040034 84 156 3.0 9.0 0.00 0.00 0.00 44 1011.1
20260906035533 84 207 4.0 7.0 0.00 0.00 0.00 44 1011.2
20260906035024 84 173 3.0 8.0 0.00 0.00 0.00 44 1011.2
20260906034529 85 189 4.0 9.0 0.00 0.00 0.00 44 1011.1
20260906034123 85 191 4.0 9.0 0.00 0.00 0.00 44 1011.1
20260906033523 85 191 5.0 9.0 0.00 0.00 0.00 43 1011.0
20260906033024 85 191 4.0 10.0 0.00 0.00 0.00 43 1010.9
20260906032523 85 196 4.0 10.0 0.00 0.00 0.00 43 1010.9
20260906032026 85 186 5.0 12.0 0.00 0.00 0.00 43 1010.9
20260906031537 85 189 7.0 12.0 0.00 0.00 0.00 43 1010.8
20260906031023 85 193 4.0 10.0 0.00 0.00 0.00 42 1010.8
20260906030522 86 193 6.0 10.0 0.00 0.00 0.00 42 1010.5
20260906030022 86 192 5.0 9.0 0.00 0.00 0.00 42 1010.6
20260906025528 86 187 4.0 10.0 0.00 0.00 0.00 42 1010.5
20260906025024 86 198 5.0 10.0 0.00 0.00 0.00 41 1010.4
20260906024527 86 174 3.0 9.0 0.00 0.00 0.00 41 1010.3
20260906023524 86 198 6.0 11.0 0.00 0.00 0.00 41 1009.9
20260906023023 87 185 7.0 11.0 0.00 0.00 0.00 41 1009.8
20260906022524 87 193 6.0 12.0 0.00 0.00 0.00 40 1009.7
20260906022023 87 190 5.0 13.0 0.00 0.00 0.00 40 1009.5
20260906021523 87 194 8.0 15.0 0.00 0.00 0.00 40 1009.3
20260906021024 87 204 9.0 15.0 0.00 0.00 0.00 40 1009.1
20260906020522 87 197 6.0 15.0 0.00 0.00 0.00 39 1009.1
20260906020022 88 197 9.0 14.0 0.00 0.00 0.00 39 1008.9
20260906015522 88 202 7.0 14.0 0.00 0.00 0.00 38 1008.9
20260906015022 88 198 6.0 13.0 0.00 0.00 0.00 38 1008.9
20260906014525 89 202 7.0 13.0 0.00 0.00 0.00 38 1008.8
20260906013523 89 198 9.0 19.0 0.00 0.00 0.00 37 1008.6
20260906013021 89 165 11.0 19.0 0.00 0.00 0.00 37 1008.6
20260906012520 90 188 12.0 19.0 0.00 0.00 0.00 36 1008.4
20260906012024 91 191 9.0 19.0 0.00 0.00 0.00 35 1008.3
20260906011523 92 183 11.0 18.0 0.00 0.00 0.00 33 1008.3
20260906011020 93 150 10.0 23.0 0.00 0.00 0.00 32 1008.2
20260906010519 95 166 7.0 20.0 0.00 0.00 0.00 27 1008.0
20260906010020 95 174 5.0 11.0 0.00 0.00 0.00 27 1007.7
20260906005518 95 196 4.0 12.0 0.00 0.00 0.00 26 1007.8
20260906005019 95 173 5.0 13.0 0.00 0.00 0.00 26 1007.8
20260906004519 95 162 7.0 13.0 0.00 0.00 0.00 25 1007.7
20260906003519 96 147 4.0 8.0 0.00 0.00 0.00 25 1007.8
20260906003023 96 156 4.0 6.0 0.00 0.00 0.00 24 1007.8
20260906002518 96 169 2.0 9.0 0.00 0.00 0.00 25 1007.8
20260906002018 96 158 4.0 10.0 0.00 0.00 0.00 25 1007.7
20260906001518 96 192 6.0 12.0 0.00 0.00 0.00 25 1007.7
20260906001023 96 160 7.0 12.0 0.00 0.00 0.00 25 1007.6
20260906000518 97 233 7.0 10.0 0.00 0.00 0.00 25 1007.6
20260906000018 97 216 5.0 9.0 0.00 0.00 0.00 25 1007.7
20260905235518 97 208 5.0 10.0 0.00 0.00 0.00 25 1007.7
20260905235024 97 191 5.0 10.0 0.00 0.00 0.00 25 1007.6
20260905234517 96 204 7.0 11.0 0.00 0.00 0.00 25 1007.7
20260905233518 96 209 7.0 12.0 0.00 0.00 0.00 25 1007.7
20260905233018 97 191 7.0 12.0 0.00 0.00 0.00 25 1007.6
20260905232517 96 195 6.0 11.0 0.00 0.00 0.00 25 1007.6
20260905232017 96 197 4.0 11.0 0.00 0.00 0.00 26 1007.5
20260905231522 97 216 7.0 11.0 0.00 0.00 0.00 25 1007.5
20260905231021 96 220 6.0 13.0 0.00 0.00 0.00 26 1007.3
20260905230516 96 203 7.0 13.0 0.00 0.00 0.00 26 1007.5
20260905230016 96 197 8.0 14.0 0.00 0.00 0.00 26 1007.5
20260905225515 96 209 8.0 11.0 0.00 0.00 0.00 26 1007.6
20260905225017 96 204 6.0 11.0 0.00 0.00 0.00 26 1007.7
20260905224519 96 191 7.0 12.0 0.00 0.00 0.00 26 1007.7
20260905224114 96 205 8.0 13.0 0.00 0.00 0.00 27 1007.6
20260905223514 96 215 8.0 13.0 0.00 0.00 0.00 27 1007.7
20260905223015 96 205 7.0 13.0 0.00 0.00 0.00 27 1007.7
20260905222515 96 225 9.0 13.0 0.00 0.00 0.00 27 1007.6
20260905222014 96 214 10.0 14.0 0.00 0.00 0.00 27 1007.7
20260905221514 96 209 9.0 14.0 0.00 0.00 0.00 27 1007.6
20260905221014 96 203 8.0 14.0 0.00 0.00 0.00 27 1007.7
20260905220516 96 224 8.0 13.0 0.00 0.00 0.00 27 1007.6
20260905220014 96 214 8.0 15.0 0.00 0.00 0.00 28 1007.7
20260905215514 96 213 10.0 15.0 0.00 0.00 0.00 27 1007.6
20260905215012 96 205 8.0 13.0 0.00 0.00 0.00 28 1007.7
20260905214512 96 218 8.0 14.0 0.00 0.00 0.00 27 1007.7
20260905213513 97 204 11.0 16.0 0.00 0.00 0.00 27 1007.8
20260905213013 97 211 11.0 16.0 0.00 0.00 0.00 26 1007.8
20260905212512 98 211 6.0 13.0 0.00 0.00 0.00 26 1007.9
20260905212012 98 152 5.0 11.0 0.00 0.00 0.00 24 1008.0
20260905211509 97 72 1.0 11.0 0.00 0.00 0.00 25 1008.1
20260905211010 97 122 4.0 11.0 0.00 0.00 0.00 26 1008.3
20260905210508 97 137 4.0 13.0 0.00 0.00 0.00 25 1008.3
20260905210008 97 78 6.0 13.0 0.00 0.00 0.00 25 1008.3
20260905205509 97 203 3.0 9.0 0.00 0.00 0.00 27 1008.3
20260905205007 96 175 4.0 9.0 0.00 0.00 0.00 27 1008.4
20260905204507 97 198 5.0 8.0 0.00 0.00 0.00 27 1008.3
20260905203504 96 162 2.0 12.0 0.00 0.00 0.00 28 1008.6
20260905203003 96 156 5.0 12.0 0.00 0.00 0.00 29 1008.8
20260905202505 97 162 7.0 12.0 0.00 0.00 0.00 28 1008.9
20260905202003 98 163 5.0 10.0 0.00 0.00 0.00 27 1008.8
20260905201501 98 182 3.0 8.0 0.00 0.00 0.00 27 1009.0
20260905201104 97 21 3.0 6.0 0.00 0.00 0.00 28 1009.0
20260905200601 96 183 3.0 10.0 0.00 0.00 0.00 28 1009.2
20260905200127 96 212 6.0 10.0 0.00 0.00 0.00 27 1009.2
20260905195655 95 187 4.0 10.0 0.00 0.00 0.00 29 1009.3
20260905195053 95 99 6.0 10.0 0.00 0.00 0.00 28 1009.5
20260905194553 95 87 4.0 14.0 0.00 0.00 0.00 30 1009.7
20260905194152 95 168 8.0 14.0 0.00 0.00 0.00 33 1009.8
20260905193552 94 208 5.0 12.0 0.00 0.00 0.00 34 1009.8
20260905193051 94 200 6.0 12.0 0.00 0.00 0.00 34 1010.0
20260905192549 94 186 6.0 11.0 0.00 0.00 0.00 34 1010.1
20260905192048 94 241 2.0 12.0 0.00 0.00 0.00 34 1010.2
20260905191546 94 227 2.0 11.0 0.00 0.00 0.00 34 1010.3
20260905191045 94 196 3.0 11.0 0.00 0.00 0.00 35 1010.3
20260905190542 93 179 1.0 12.0 0.00 0.00 0.00 35 1010.4
20260905190050 93 162 6.0 12.0 0.00 0.00 0.00 36 1010.6
20260905185545 93 272 3.0 10.0 0.00 0.00 0.00 36 1010.6
20260905185039 93 194 6.0 10.0 0.00 0.00 0.00 36 1010.8
20260905184539 93 198 0.0 10.0 0.00 0.00 0.00 36 1010.9
20260905184136 92 204 5.0 13.0 0.00 0.00 0.00 36 1010.8
20260905183536 92 214 4.0 13.0 0.00 0.00 0.00 36 1011.0
20260905183035 92 151 4.0 13.0 0.00 0.00 0.00 37 1011.1
20260905182534 91 196 3.0 13.0 0.00 0.00 0.00 37 1011.2
20260905182037 92 198 6.0 13.0 0.00 0.00 0.00 37 1011.3
20260905181535 92 117 5.0 9.0 0.00 0.00 0.00 37 1011.4
20260905181134 92 61 4.0 11.0 0.00 0.00 0.00 38 1011.4
20260905180531 91 177 4.0 11.0 0.00 0.00 0.00 39 1011.4
20260905180044 91 127 5.0 12.0 0.00 0.00 0.00 40 1011.5
20260905175529 90 171 5.0 12.0 0.00 0.00 0.00 41 1011.5
20260905175029 90 164 2.0 13.0 0.00 0.00 0.00 41 1011.6
20260905174528 90 204 7.0 11.0 0.00 0.00 0.00 41 1011.7
20260905174127 90 230 5.0 15.0 0.00 0.00 0.00 43 1011.7
20260905173528 89 156 5.0 15.0 0.00 0.00 0.00 43 1011.6
20260905173025 89 154 8.0 15.0 0.00 0.00 0.00 44 1011.6
20260905172525 89 197 6.0 15.0 0.00 0.00 0.00 44 1011.7
20260905172025 89 227 8.0 15.0 0.00 0.00 0.00 44 1011.8
20260905171532 89 191 5.0 10.0 0.00 0.00 0.00 44 1011.7
20260905171024 88 238 4.0 13.0 0.00 0.00 0.00 44 1011.7
20260905170523 89 201 8.0 13.0 0.00 0.00 0.00 44 1011.8
20260905170022 88 177 3.0 10.0 0.00 0.00 0.00 46 1011.8
20260905165525 88 150 7.0 11.0 0.00 0.00 0.00 46 1011.9
20260905165020 87 186 6.0 11.0 0.00 0.00 0.00 46 1011.9
20260905164519 87 179 6.0 11.0 0.00 0.00 0.00 47 1011.9
20260905164119 86 184 4.0 12.0 0.00 0.00 0.00 47 1011.8
20260905163519 86 185 5.0 12.0 0.00 0.00 0.00 47 1011.9
20260905163019 86 140 4.0 11.0 0.00 0.00 0.00 47 1011.9
20260905162517 86 182 6.0 11.0 0.00 0.00 0.00 47 1011.9
20260905162020 85 187 5.0 10.0 0.00 0.00 0.00 48 1011.9
20260905161523 85 210 4.0 12.0 0.00 0.00 0.00 49 1012.0
20260905161016 85 238 8.0 12.0 0.00 0.00 0.00 49 1012.0
20260905160517 85 139 4.0 11.0 0.00 0.00 0.00 50 1012.0
20260905160016 84 198 6.0 11.0 0.00 0.00 0.00 51 1012.1
20260905155513 84 212 6.0 11.0 0.00 0.00 0.00 51 1012.1
20260905155011 84 162 6.0 11.0 0.00 0.00 0.00 52 1012.1
20260905154510 83 214 7.0 12.0 0.00 0.00 0.00 52 1012.1
20260905154109 83 196 4.0 11.0 0.00 0.00 0.00 52 1012.1
20260905153509 83 218 5.0 12.0 0.00 0.00 0.00 52 1012.0
20260905153007 83 206 4.0 12.0 0.00 0.00 0.00 53 1012.1
20260905152507 82 200 4.0 11.0 0.00 0.00 0.00 54 1012.1
20260905152006 82 219 8.0 11.0 0.00 0.00 0.00 54 1012.1
20260905151506 82 194 7.0 13.0 0.00 0.00 0.00 54 1012.1
20260905151005 82 241 7.0 13.0 0.00 0.00 0.00 55 1012.1
20260905150506 82 199 6.0 11.0 0.00 0.00 0.00 55 1012.1
20260905150005 81 160 4.0 10.0 0.00 0.00 0.00 55 1012.2
20260905145506 81 214 6.0 10.0 0.00 0.00 0.00 55 1012.2
20260905145005 81 157 5.0 11.0 0.00 0.00 0.00 56 1012.2
20260905144504 80 169 6.0 13.0 0.00 0.00 0.00 56 1012.3
20260905144105 80 202 5.0 12.0 0.00 0.00 0.00 56 1012.3
20260905143506 80 198 5.0 12.0 0.00 0.00 0.00 56 1012.2
20260905143007 80 171 6.0 12.0 0.00 0.00 0.00 57 1012.3
20260905142508 79 199 6.0 14.0 0.00 0.00 0.00 58 1012.3
20260905142005 79 189 8.0 14.0 0.00 0.00 0.00 57 1012.2
20260905141511 79 176 5.0 14.0 0.00 0.00 0.00 58 1012.2
20260905141004 79 193 8.0 14.0 0.00 0.00 0.00 58 1012.1
20260905140507 79 199 6.0 13.0 0.00 0.00 0.00 58 1012.0
20260905140009 79 183 7.0 13.0 0.00 0.00 0.00 57 1012.1
20260905135504 79 195 6.0 10.0 0.00 0.00 0.00 57 1012.0
20260905135002 78 193 4.0 9.0 0.00 0.00 0.00 57 1011.9
20260905134501 78 181 5.0 9.0 0.00 0.00 0.00 58 1011.9
20260905134101 78 127 4.0 8.0 0.00 0.00 0.00 58 1011.9
20260905133059 78 171 3.0 7.0 0.00 0.00 0.00 58 1011.7
20260905132600 78 159 3.0 8.0 0.00 0.00 0.00 58 1011.6
20260905132059 77 182 2.0 7.0 0.00 0.00 0.00 59 1011.7
20260905131558 77 188 3.0 7.0 0.00 0.00 0.00 59 1011.7
20260905131057 77 168 2.0 5.0 0.00 0.00 0.00 59 1011.5
20260905130557 77 167 3.0 5.0 0.00 0.00 0.00 59 1011.4
20260905130056 77 166 2.0 6.0 0.00 0.00 0.00 59 1011.3
20260905125555 77 175 3.0 6.0 0.00 0.00 0.00 59 1011.3
20260905125055 77 175 1.0 6.0 0.00 0.00 0.00 59 1011.3
20260905124557 77 175 2.0 6.0 0.00 0.00 0.00 59 1011.2
20260905124054 77 173 2.0 4.0 0.00 0.00 0.00 59 1011.2
20260905123053 77 173 2.0 4.0 0.00 0.00 0.00 59 1011.1
20260905122552 77 173 1.0 4.0 0.00 0.00 0.00 59 1011.0
20260905122054 77 173 3.0 6.0 0.00 0.00 0.00 59 1010.9
20260905121553 77 173 3.0 6.0 0.00 0.00 0.00 59 1010.8
20260905121053 77 174 3.0 6.0 0.00 0.00 0.00 59 1010.8
20260905120550 77 180 3.0 8.0 0.00 0.00 0.00 58 1010.8
20260905120100 77 183 3.0 8.0 0.00 0.00 0.00 58 1010.8
20260905115549 77 184 4.0 7.0 0.00 0.00 0.00 58 1010.8
20260905115051 77 180 3.0 7.0 0.00 0.00 0.00 58 1010.7
20260905114601 77 175 4.0 7.0 0.00 0.00 0.00 58 1010.8
20260905114049 77 170 2.0 7.0 0.00 0.00 0.00 57 1010.8
20260905113056 77 170 3.0 7.0 0.00 0.00 0.00 57 1010.7
20260905112549 77 185 3.0 6.0 0.00 0.00 0.00 57 1010.7
20260905112049 77 186 4.0 6.0 0.00 0.00 0.00 57 1010.7